This is the latest recevied weather packets stored in our database for station/object WW3TRG. If no packets are shown the sender has not sent any weather packets the latest 10 day(s).
| Time | Temp. | Humidity | Pressure | Rain* | Wind** | Luminosity | Snow |
|---|---|---|---|---|---|---|---|
| 1777886911 | 0.56° C | 99% | 1013.1 hPa | 0 mm | - | 0 W/m² | - |
| 1777886606 | 0.56° C | 99% | 1013.1 hPa | 0 mm | - | 0 W/m² | - |
| 1777886304 | 0.56° C | 99% | 1012.9 hPa | 0 mm | - | 0 W/m² | - |
| 1777886002 | 1.11° C | 99% | 1013.1 hPa | 0 mm | - | 0 W/m² | - |
| 1777885701 | 1.11° C | 99% | 1013.1 hPa | 0 mm | - | 0 W/m² | - |
| 1777885398 | 1.11° C | 99% | 1013.3 hPa | 0 mm | - | 0 W/m² | - |
| 1777885097 | 1.11° C | 99% | 1013.3 hPa | 0 mm | - | 0 W/m² | - |
| 1777884793 | 1.11° C | 98% | 1013.3 hPa | 0 mm | - | 0 W/m² | - |
| 1777884489 | 0.56° C | 98% | 1013.4 hPa | 0 mm | - | 0 W/m² | - |
| 1777884187 | 1.11° C | 98% | 1013.2 hPa | 0 mm | - | 0 W/m² | - |
| 1777883883 | 1.11° C | 98% | 1013 hPa | 0 mm | - | 0 W/m² | - |
| 1777883580 | 1.11° C | 98% | 1013.2 hPa | 0 mm | - | 0 W/m² | - |
| 1777883275 | 1.11° C | 98% | 1013.1 hPa | 0 mm | - | 0 W/m² | - |
| 1777882972 | 1.11° C | 98% | 1013.5 hPa | 0 mm | - | 0 W/m² | - |
| 1777882669 | 1.11° C | 98% | 1013.4 hPa | 0 mm | - | 0 W/m² | - |
| 1777882365 | 1.11° C | 97% | 1013.1 hPa | 0 mm | - | 0 W/m² | - |
| 1777882062 | 1.67° C | 97% | 1013.2 hPa | 0 mm | - | 0 W/m² | - |
| 1777881758 | 1.67° C | 97% | 1013 hPa | 0 mm | - | 0 W/m² | - |
| 1777881455 | 1.67° C | 97% | 1013.2 hPa | 0 mm | - | 0 W/m² | - |
| 1777881152 | 1.67° C | 97% | 1013.2 hPa | 0 mm | - | 0 W/m² | - |
| 1777880850 | 1.67° C | 97% | 1013.2 hPa | 0 mm | - | 0 W/m² | - |
| 1777880548 | 1.67° C | 97% | 1013.3 hPa | 0 mm | - | 0 W/m² | - |
| 1777880246 | 1.67° C | 97% | 1013.3 hPa | 0 mm | - | 0 W/m² | - |
| 1777879944 | 2.22° C | 97% | 1013.2 hPa | 0 mm | - | 0 W/m² | - |
| 1777879642 | 1.67° C | 96% | 1013.2 hPa | 0 mm | - | 0 W/m² | - |
* Rain latest hour (hover to see other rain measurements)
** Current wind speed in m/s (hover to see current wind gust speed)